Weather History for Ft Lauderdale, FL

Change the Weather History Date:

Sunday, July 21, 2013

  Actual Average Record
Temperature  
Mean Temperature 83 °F 85 °F  
Max Temperature 88 °F 91 °F 96 °F (1924)
Min Temperature 77 °F 79 °F 68 °F (1974)
Degree Days  
Heating Degree Days 0 0  
Month to date heating degree days 0 0  
Since 1 June heating degree days 0 0  
Since 1 July heating degree days 0 0  
Cooling Degree Days 18 20  
Month to date cooling degree days 339 401  
Year to date cooling degree days 2279 2362  
Since 1 June cooling degree days 883 944  
Growing Degree Days 32 (Base 50)    
Moisture  
Dew Point 76 °F    
Average Humidity 57    
Maximum Humidity 91    
Minimum Humidity 23    
Precipitation  
Precipitation 0.00 in 0.18 in 1.92 in (1926)
Month to date precipitation 13.23 4.20  
Year to date precipitation 52.74 31.85  
Snow  
Snow 0.00 in - - ()
Month to date snowfall 0.0  
Since 1 June snowfall 0.0  
Since 1 July snowfall 0.0  
Snow Depth 0.00 in    
Sea Level Pressure  
Sea Level Pressure 30.11 in    
Wind  
Wind Speed 6 mph (SE)    
Max Wind Speed 16 mph    
Max Gust Speed 21 mph    
Visibility 10 miles    
Events      
T = Trace of Precipitation, MM = Missing Value Source: NWS Daily Summary

Daily Weather History Graph

Daily Weather History Graph

Search for Another Location

Airport:

Trip Planner

Search our weather history database for the weather conditions in past years. The results will help you decide how hot, cold, wet, or windy it might be!

Date:

Astronomy

Jul. 21, 2013 Rise Set
Actual Time 6:41 AM EDT 8:12 PM EDT
Civil Twilight 6:15 AM EDT 8:38 PM EDT
Nautical Twilight 5:45 AM EDT 9:08 PM EDT
Astronomical Twilight 5:13 AM EDT 9:39 PM EDT
Moon 7:13 PM EDT (7/21) 5:23 AM EDT (7/21)
Length of Visible Light 14h 22m
Length of Day
13h 31m
Waxing Gibbous, 98% of the Moon is Illuminated
Jul 21
Waxing Gibbous
Jul 22
Full
Jul 29
Last Quarter
Aug 6
New
Aug 14
First Quarter

Hourly Weather History & Observations

Time (EDT) Temp. Heat Index Dew Point Humidity Pressure Visibility Wind Dir Wind Speed Gust Speed Precip Events Conditions
12:53 AM 81.0 °F 87.9 °F 77.0 °F 88% 30.08 in 10.0 mi Calm Calm - N/A   Scattered Clouds
1:53 AM 81.0 °F 86.2 °F 73.9 °F 79% 30.09 in 10.0 mi Calm Calm - N/A   Scattered Clouds
2:53 AM 77.0 °F - 73.4 °F 89% 30.09 in 10.0 mi Calm Calm - N/A   Scattered Clouds
3:53 AM 78.6 °F - 73.4 °F 84% 30.07 in 10.0 mi Calm Calm - N/A   Mostly Cloudy
4:53 AM 78.1 °F - 75.9 °F 93% 30.07 in 10.0 mi Calm Calm - N/A   Scattered Clouds
5:53 AM 79.0 °F - 75.7 °F 90% 30.08 in 10.0 mi Calm Calm - N/A   Scattered Clouds
6:53 AM 80.1 °F 85.4 °F 75.7 °F 87% 30.09 in 10.0 mi Calm Calm - N/A   Mostly Cloudy
7:53 AM 80.1 °F 85.4 °F 75.7 °F 87% 30.10 in 10.0 mi Calm Calm - N/A   Mostly Cloudy
8:53 AM 81.0 °F 87.1 °F 75.7 °F 84% 30.12 in 10.0 mi Variable 3.5 mph - N/A   Mostly Cloudy
9:53 AM 82.0 °F 91.0 °F 78.1 °F 88% 30.13 in 10.0 mi Calm Calm - N/A   Mostly Cloudy
10:53 AM 82.9 °F 92.8 °F 78.1 °F 85% 30.14 in 10.0 mi SE 3.5 mph - N/A   Mostly Cloudy
11:53 AM 82.9 °F 92.8 °F 78.1 °F 85% 30.14 in 10.0 mi SE 8.1 mph - N/A   Mostly Cloudy
12:53 PM 86.0 °F 96.0 °F 75.9 °F 72% 30.13 in 10.0 mi SE 11.5 mph - N/A   Mostly Cloudy
1:53 PM 87.1 °F 96.3 °F 75.0 °F 67% 30.12 in 10.0 mi SE 11.5 mph - N/A   Mostly Cloudy
2:53 PM 87.1 °F 98.8 °F 77.0 °F 72% 30.10 in 8.0 mi SE 12.7 mph - N/A   Partly Cloudy
3:53 PM 87.1 °F 97.3 °F 75.9 °F 69% 30.09 in 10.0 mi SE 13.8 mph - N/A   Partly Cloudy
4:53 PM 84.9 °F 94.1 °F 75.9 °F 74% 30.08 in 8.0 mi SE 13.8 mph - N/A   Scattered Clouds
5:53 PM 84.0 °F 92.6 °F 75.9 °F 76% 30.07 in 8.0 mi SE 11.5 mph - N/A   Partly Cloudy
6:53 PM 82.9 °F 90.8 °F 75.9 °F 79% 30.06 in 8.0 mi SE 13.8 mph - N/A   Partly Cloudy
7:53 PM 82.0 °F 88.6 °F 75.0 °F 79% 30.10 in 8.0 mi SE 6.9 mph - N/A   Scattered Clouds
8:53 PM 82.0 °F 88.6 °F 75.0 °F 79% 30.10 in 10.0 mi SE 6.9 mph - N/A   Scattered Clouds
9:53 PM 82.0 °F 88.6 °F 75.0 °F 79% 30.13 in 9.0 mi Calm Calm - N/A   Scattered Clouds
10:17 PM 82.4 °F 89.5 °F 75.2 °F 79% 30.14 in 10.0 mi Calm Calm - N/A   Mostly Cloudy
10:36 PM 82.4 °F 89.5 °F 75.2 °F 79% 30.15 in 10.0 mi ESE 4.6 mph - N/A   Scattered Clouds
10:53 PM 82.0 °F 88.6 °F 75.0 °F 79% 30.15 in 10.0 mi ENE 4.6 mph - N/A   Clear
11:53 PM 82.0 °F 88.6 °F 75.0 °F 79% 30.15 in 10.0 mi East 8.1 mph - N/A   Partly Cloudy